Wind_Speed
66 67 69 69 69 69 70 69 69 67 64 63 60 56 52 50 51 48 45 44 41 39 38 34 32 31 31 30 27 24 24 27 27 25 27 28 28 27 26 25 24 23 22 20 19 17 16 15 14 14 15 15 14 12 11 11 11 11 11 11 11 10 10
66 68 69 69 69 70 71 71 71 69 65 63 60 57 54 52 54 52 48 47 44 42 40 38 36 35 34 33 30 28 27 28 30 28 28 29 28 27 24 23 22 23 23 22 20 19 18 17 16 16 17 17 16 14 13 13 13 12 11 11 12 12 12
66 67 68 69 70 70 72 73 72 71 68 64 61 60 58 56 56 55 52 50 47 45 43 42 40 38 37 35 33 33 30 29 31 32 31 29 28 26 23 22 23 25 25 24 23 22 20 19 19 18 18 19 18 19 18 16 13 12 11 11 12 13 13
66 67 68 69 70 70 73 75 75 74 72 68 64 63 61 58 57 58 56 54 51 48 47 45 43 40 40 39 38 36 34 33 32 33 32 29 26 25 24 24 26 27 27 27 26 25 22 21 21 20 19 18 19 19 18 17 14 12 13 12 11 11 12
67 67 67 69 71 71 73 76 77 77 75 73 68 66 64 61 59 59 59 58 55 52 50 48 46 43 41 41 41 39 38 38 35 32 32 29 25 23 23 24 25 27 29 29 29 28 25 24 23 22 20 19 19 19 18 17 15 13 14 15 14 12 12
67 67 67 68 71 73 73 75 77 78 78 76 72 69 67 63 61 59 58 59 58 55 51 49 47 43 41 42 43 42 42 40 37 33 31 29 25 22 23 23 23 27 29 30 30 29 28 27 25 24 23 21 21 21 20 19 16 14 15 18 17 15 15
67 67 68 68 70 74 75 76 78 78 79 78 75 71 68 65 63 60 55 56 59 56 52 50 47 44 43 42 43 44 44 42 40 36 32 29 26 24 25 23 24 27 29 30 31 31 31 31 28 26 26 23 22 23 23 22 19 16 17 18 17 15 15
66 66 67 68 70 74 76 78 79 80 80 80 77 74 69 65 65 62 55 53 57 58 55 51 49 47 45 45 45 45 45 44 42 37 33 30 27 27 26 24 27 31 31 32 33 32 33 32 30 28 27 25 23 23 24 24 23 20 19 20 19 18 16
64 66 67 68 70 74 77 79 80 81 82 81 79 76 71 68 67 66 62 57 57 62 61 55 51 50 48 46 46 45 45 46 43 38 37 37 34 31 29 29 34 36 33 33 34 33 33 32 31 30 29 28 26 26 26 26 25 24 23 22 22 21 20
62 65 66 68 70 74 78 80 81 82 83 83 82 78 74 71 71 70 69 65 61 64 66 60 55 53 50 47 46 45 46 46 44 40 39 39 37 35 34 37 40 39 35 34 35 34 33 32 32 31 30 29 28 29 30 28 27 27 27 26 25 24 24
60 63 65 68 71 74 78 82 84 84 84 85 84 82 78 75 75 74 74 71 65 63 65 63 59 55 52 49 47 46 46 46 47 44 38 36 35 36 39 41 41 39 36 36 36 34 34 35 35 32 29 28 28 28 30 30 30 29 29 29 28 27 26
59 62 65 67 71 75 78 83 86 86 85 86 87 85 82 79 78 78 77 75 69 64 64 63 60 57 53 50 48 48 48 47 48 48 42 38 37 38 39 37 36 37 38 36 35 35 36 38 37 33 30 30 30 30 31 32 32 32 31 31 30 29 28
57 61 64 67 71 76 79 83 87 88 87 88 89 88 85 82 80 79 78 76 72 67 65 64 60 57 55 52 52 52 51 49 48 46 43 41 39 38 35 33 33 37 38 35 33 34 36 37 37 35 34 34 35 34 33 34 34 34 33 32 31 31 30
56 60 63 67 71 76 80 83 87 89 88 88 91 90 87 85 83 81 77 74 71 69 67 65 62 59 57 55 55 55 54 52 49 46 44 43 41 36 31 30 32 37 40 37 35 36 37 37 38 38 38 38 37 36 35 34 34 34 33 33 32 31 30
54 59 63 66 70 75 81 84 86 89 89 89 91 92 90 87 85 82 78 74 71 68 67 66 64 62 59 58 58 57 56 54 53 50 48 46 43 37 30 29 33 37 38 39 40 39 38 38 40 40 40 39 37 36 35 33 32 33 33 34 33 32 31
52 57 61 65 69 74 81 85 87 89 90 89 91 92 90 89 88 85 80 76 72 69 67 67 66 65 64 62 61 59 57 56 56 55 52 50 47 42 38 38 43 44 43 43 44 42 40 40 40 41 40 38 37 36 35 33 32 32 33 33 34 33 32
51 55 59 64 69 74 80 85 87 89 91 90 90 91 90 89 89 87 82 78 75 72 69 68 68 68 67 66 64 63 59 56 57 56 55 52 50 47 46 49 54 57 56 53 48 44 43 42 41 40 40 38 37 36 35 34 33 33 32 33 34 35 34
51 53 57 62 67 73 79 85 88 89 91 91 91 91 90 89 89 87 83 80 77 74 72 71 70 69 69 68 68 67 64 59 57 57 57 55 53 51 51 55 58 58 58 56 50 47 46 44 42 42 41 39 38 36 35 32 32 35 35 34 35 36 36
49 52 55 59 65 71 77 84 89 90 92 93 92 92 91 89 88 87 84 81 80 78 75 73 72 70 69 70 70 71 69 64 61 59 59 59 58 55 54 56 56 56 56 54 50 48 47 46 45 44 42 41 39 35 33 30 32 38 39 38 39 39 37
48 51 54 57 61 68 75 82 88 91 92 93 94 93 92 91 90 88 84 81 80 80 77 75 74 73 72 73 74 73 72 70 67 64 64 65 64 62 57 52 49 52 56 55 51 49 48 47 46 43 42 42 39 35 34 34 37 41 42 42 43 43 41
46 49 53 55 58 64 71 79 86 90 92 94 95 95 93 92 92 89 85 81 79 80 79 77 76 76 75 76 76 76 74 73 72 71 71 72 72 70 63 53 46 47 53 56 54 51 50 48 46 43 41 40 38 37 37 40 43 43 42 43 43 43 44
44 48 51 54 56 60 67 75 82 89 92 93 95 96 95 93 93 91 88 82 78 78 80 80 79 78 77 77 77 77 76 75 75 75 75 77 78 76 70 63 55 49 50 54 54 53 52 51 49 47 44 43 42 42 43 44 45 44 41 41 41 42 44
42 45 48 52 54 57 62 70 77 85 90 93 94 96 96 95 93 91 90 86 81 79 81 81 81 79 78 77 78 78 78 77 77 76 76 78 78 77 75 73 69 61 56 55 55 54 54 55 53 51 49 48 48 49 49 47 46 43 42 41 42 43 44
40 43 45 49 52 55 59 65 72 80 87 92 94 95 96 97 95 92 92 90 85 82 82 82 81 80 79 79 79 80 79 79 78 77 77 77 76 75 75 75 77 75 70 66 63 60 57 57 56 55 55 55 56 55 54 52 49 46 44 44 45 45 46
39 40 43 45 49 52 56 60 67 74 82 88 93 95 96 97 97 95 94 93 90 84 82 83 83 81 81 81 81 81 81 80 80 80 80 79 78 77 75 75 76 76 74 71 69 65 61 58 57 57 58 59 60 60 57 55 53 51 48 47 47 46 46
38 39 41 43 46 49 53 57 62 68 76 83 89 93 95 96 97 98 96 95 93 88 83 83 84 84 83 82 82 82 82 81 81 81 81 81 81 79 77 76 75 74 72 70 68 67 66 63 61 60 60 59 59 59 57 56 54 53 51 49 47 47 47
36 38 39 41 43 47 50 54 59 64 70 77 83 89 94 96 97 98 98 97 96 93 88 84 84 85 85 85 84 83 82 82 82 82 82 82 82 80 78 77 76 74 72 70 69 69 69 68 67 66 64 61 59 58 56 56 55 54 52 48 47 48 49
33 36 38 39 41 44 48 51 56 60 65 71 77 83 89 94 96 97 98 98 97 96 93 89 86 85 86 86 86 85 84 83 82 82 83 83 82 81 79 78 78 76 73 72 71 72 72 72 71 70 68 66 65 62 60 59 58 56 54 51 49 50 51
29 33 36 38 40 43 46 49 53 57 61 66 71 77 83 88 93 96 97 98 98 96 95 93 90 87 86 87 87 87 86 85 84 83 83 83 83 82 81 80 79 77 75 74 74 75 75 75 75 74 72 70 69 68 66 65 64 61 60 58 55 54 54
26 29 32 36 39 41 44 47 50 54 58 62 66 71 77 82 88 92 95 97 98 97 96 95 94 91 88 87 87 87 87 86 85 85 85 84 83 82 81 80 78 76 75 76 77 78 78 78 78 76 75 73 72 72 72 71 69 66 64 63 62 60 59
22 26 29 32 36 39 42 44 47 50 53 58 62 66 71 76 81 86 91 94 96 97 97 96 96 95 91 89 87 87 87 86 86 86 86 85 84 83 81 80 78 76 76 77 78 80 80 79 78 77 76 75 75 75 74 73 71 70 68 67 66 64 62
19 22 26 29 33 36 39 41 44 45 48 53 57 61 66 71 76 80 85 90 93 95 96 97 98 98 95 92 89 88 87 87 86 86 86 86 85 84 82 81 79 78 77 78 79 80 80 79 78 78 78 77 77 76 75 74 73 72 71 70 68 66 65
17 19 23 26 29 33 36 38 40 42 44 47 52 57 61 66 70 75 80 84 88 92 94 96 97 99 99 97 94 91 89 88 87 87 86 86 86 84 83 83 82 81 79 79 80 80 80 80 79 79 79 79 78 77 76 76 76 75 74 72 71 69 68
15 17 19 23 26 29 32 34 36 38 41 43 47 52 56 61 66 70 74 79 83 87 90 93 95 97 98 99 99 96 94 92 90 89 88 87 87 86 85 85 85 83 82 81 82 82 82 81 81 81 81 81 80 79 79 78 78 78 77 75 74 72 71
13 14 16 19 22 25 28 30 33 35 37 40 43 47 51 56 61 66 70 74 79 82 86 89 92 94 96 97 99 99 98 97 95 93 91 90 89 88 87 87 87 86 85 84 84 84 84 84 84 83 83 83 82 82 81 81 81 80 79 78 77 76 75
10 11 13 15 17 20 23 26 29 31 33 36 40 43 47 51 56 61 66 70 74 78 82 85 88 91 93 94 96 97 98 98 98 97 96 94 93 92 90 90 89 88 87 87 86 86 86 86 86 86 85 85 84 84 84 83 83 83 82 81 80 79 79
7 9 10 12 14 16 19 22 25 28 30 33 36 40 43 47 51 56 61 66 70 74 78 81 84 87 89 91 92 93 94 95 96 97 97 97 96 95 93 92 91 90 90 89 89 89 89 89 89 88 88 88 87 87 86 86 85 85 84 83 83 82 82
Wind_Direction
210 210 211 211 209 209 209 206 203 203 203 205 207 206 204 202 203 204 203 203 203 201 201 205 209 210 212 216 218 213 202 200 211 227 230 222 216 218 222 224 226 225 229 237 236 229 228 227 226 232 236 238 246 256 259 265 276 272 262 262 258 252 252
210 209 210 211 209 207 208 206 203 202 203 205 206 207 206 205 204 205 204 203 204 204 204 207 211 213 215 216 216 210 204 203 206 215 225 222 216 219 225 228 229 227 230 238 238 229 227 227 226 234 240 243 248 251 253 263 277 277 269 266 264 262 260
210 209 209 209 209 207 206 207 204 202 203 205 207 207 207 206 206 206 206 207 208 207 205 208 211 214 216 215 214 210 208 209 205 205 212 214 212 218 226 229 232 233 234 240 241 232 229 230 229 234 241 247 253 255 254 259 267 271 273 273 272 272 272
211 209 208 208 208 207 206 207 205 203 204 206 207 209 208 207 206 208 209 211 212 209 208 211 214 217 218 216 214 212 212 212 207 204 208 210 212 220 227 229 233 235 235 239 241 236 234 235 234 234 241 251 258 257 250 249 252 261 270 272 274 279 282
212 209 208 207 207 206 206 207 206 204 205 207 208 209 210 208 207 209 211 212 213 211 211 214 218 220 218 217 216 213 213 214 210 208 209 208 208 218 227 230 234 237 235 235 237 236 235 239 238 234 239 248 252 252 247 244 248 259 269 274 274 279 283
214 210 208 206 205 205 206 206 206 204 205 208 209 209 210 209 207 209 211 213 212 211 213 215 218 217 215 215 215 213 212 212 211 211 211 208 207 213 221 228 236 239 236 233 233 232 233 238 239 236 238 243 247 247 245 245 249 253 260 266 268 271 279
216 211 208 206 204 204 205 206 206 204 204 208 209 209 210 210 208 207 209 213 213 210 208 209 210 208 209 213 213 213 213 211 210 211 211 212 216 222 221 221 230 238 239 237 233 230 231 236 240 239 239 243 245 244 243 244 246 245 244 247 251 259 272
217 213 209 206 204 203 204 206 206 204 204 207 208 208 208 209 208 205 206 210 212 210 205 203 203 204 207 212 213 214 214 211 210 209 208 209 215 225 225 220 225 235 241 241 235 229 229 234 239 240 240 241 242 240 240 243 244 244 244 243 245 251 258
217 215 210 206 204 203 204 205 205 204 204 206 208 206 207 209 206 204 204 204 208 209 205 203 204 205 207 212 215 214 215 213 210 206 202 200 204 214 221 225 230 236 242 242 236 231 230 232 237 239 239 240 240 239 240 244 247 247 248 248 251 256 258
217 215 211 207 204 203 203 203 204 203 203 205 207 205 205 207 206 205 205 204 206 207 206 205 205 205 206 211 213 213 215 213 208 202 199 198 203 209 215 225 234 238 241 241 238 235 231 233 237 238 239 243 244 241 242 247 251 252 252 254 258 261 261
217 216 212 208 205 203 203 202 202 202 202 204 206 205 205 207 207 207 208 207 207 206 205 205 205 205 206 209 210 211 214 211 206 209 211 207 208 212 217 228 236 238 239 240 239 234 230 235 242 241 238 242 247 246 245 248 252 255 256 258 261 263 262
217 215 213 209 205 203 203 202 202 203 203 203 205 206 206 207 207 208 210 210 209 207 206 206 205 205 206 208 208 209 211 210 208 215 219 213 212 215 222 233 237 236 238 239 238 234 231 236 244 245 242 246 251 251 248 249 253 256 259 261 263 264 265
217 215 213 210 206 204 203 202 202 204 203 202 204 206 206 207 208 209 211 211 210 210 209 208 207 206 206 208 208 208 209 210 210 213 213 211 213 218 226 236 237 235 236 234 233 233 233 236 240 242 245 249 253 252 249 250 254 256 259 262 263 263 265
218 215 213 211 207 204 203 203 203 204 204 202 203 205 207 208 209 210 210 210 210 211 210 209 208 206 206 207 209 209 209 209 211 212 211 211 213 216 227 238 240 238 236 233 231 232 233 235 237 239 243 248 250 249 248 250 254 257 258 260 261 262 263
219 216 214 211 208 205 203 203 203 205 205 204 203 204 207 209 210 211 211 210 210 210 210 209 208 207 206 207 209 210 209 210 211 213 214 214 212 212 219 231 236 237 237 236 234 232 233 235 237 240 242 246 248 247 247 250 254 257 258 259 260 261 261
222 218 215 212 209 206 204 203 204 205 206 205 204 204 206 209 210 211 211 211 210 209 208 208 209 209 208 208 210 211 211 211 212 213 215 217 214 210 210 218 227 229 228 230 230 231 234 236 237 239 243 246 247 246 247 252 256 260 260 260 261 261 261
223 220 217 213 210 207 205 204 204 205 207 207 205 205 206 208 210 211 212 212 211 210 208 208 208 209 209 209 210 212 212 211 211 214 217 217 213 209 209 215 223 227 227 229 231 233 236 237 237 239 242 246 247 246 248 252 258 263 264 264 265 264 263
224 222 219 215 212 209 206 204 205 206 207 208 207 206 207 208 209 211 211 212 211 211 209 208 208 209 210 210 211 213 214 212 211 213 216 215 212 212 214 218 224 228 229 230 233 235 236 237 239 241 242 244 247 250 252 255 263 268 267 267 269 266 264
225 223 221 218 214 211 208 206 205 206 207 208 209 208 207 208 209 210 211 212 212 211 210 209 210 210 210 211 212 214 216 216 214 213 215 216 216 217 219 223 229 232 231 230 232 233 235 236 239 242 243 245 248 251 253 254 257 262 264 267 268 267 266
225 224 222 220 216 213 210 207 206 207 207 208 210 210 209 209 209 210 211 212 212 212 212 211 211 212 212 213 214 215 217 218 218 216 216 218 220 222 222 226 232 234 233 232 233 234 236 238 240 242 243 246 249 250 248 245 247 254 262 267 267 266 266
225 224 223 221 219 215 212 210 208 208 208 209 210 211 210 209 209 210 210 212 213 213 212 212 212 213 213 215 217 218 219 219 220 221 221 221 222 224 226 228 233 234 233 232 234 236 237 239 241 242 243 245 247 246 244 245 249 256 263 267 266 266 266
227 224 223 222 220 218 215 212 210 209 209 209 210 211 212 211 210 210 210 212 213 213 212 213 213 214 214 215 217 219 220 221 222 223 224 225 226 226 228 231 234 234 233 232 234 238 239 240 241 243 244 246 246 245 246 250 254 258 262 265 266 266 265
229 226 224 223 221 220 217 215 212 211 210 210 211 212 213 212 211 210 210 211 213 214 213 213 214 214 214 215 216 218 220 222 223 225 226 228 229 230 230 233 235 235 235 234 235 240 243 242 242 243 244 246 247 248 251 254 257 260 262 265 267 269 265
230 228 225 223 222 221 219 217 215 213 212 211 211 212 213 214 213 211 211 211 213 215 215 215 215 215 215 215 216 218 220 221 223 225 227 230 232 232 233 234 236 237 238 239 241 244 244 243 244 247 248 248 249 251 253 256 258 260 262 265 268 270 266
232 230 227 225 223 221 221 219 217 215 214 213 213 213 213 214 214 213 212 212 212 215 217 217 217 217 217 217 218 218 219 221 223 225 227 230 232 234 235 236 236 238 240 242 244 245 243 244 247 251 253 253 252 252 254 256 256 257 261 265 268 268 264
234 232 229 226 223 221 221 220 219 218 216 214 214 214 214 214 215 215 214 214 213 214 217 219 219 219 219 219 219 220 220 221 223 225 227 230 232 234 235 236 237 238 239 241 243 244 244 246 250 253 254 254 252 250 252 253 253 255 260 264 266 264 262
234 234 232 228 225 223 221 220 220 219 218 216 215 215 215 215 215 215 216 216 215 214 216 219 221 221 221 221 221 221 222 222 223 225 227 229 231 233 234 236 237 238 239 240 242 244 246 248 251 252 254 253 250 248 250 253 255 257 260 263 265 263 260
234 234 233 231 228 225 222 221 220 220 219 218 217 216 216 216 216 217 217 217 217 216 217 219 221 222 222 222 223 223 223 224 225 226 228 229 231 232 233 235 236 238 239 241 243 245 247 249 250 252 253 252 251 251 253 256 258 260 260 262 266 265 261
233 232 232 231 229 227 224 222 220 219 220 219 218 217 217 217 217 217 218 218 218 218 218 218 220 223 223 223 224 225 225 226 227 228 229 230 231 232 233 235 236 237 239 241 243 244 246 248 249 251 252 253 253 254 256 259 261 262 262 262 265 266 263
235 233 233 232 230 228 226 224 222 220 219 220 220 218 218 218 218 218 218 219 219 219 219 218 219 222 223 224 225 226 227 228 229 229 230 231 232 233 234 235 236 237 238 240 241 243 244 246 248 250 252 253 254 255 257 259 261 262 261 261 263 264 263
237 234 233 233 231 229 227 226 224 222 220 220 220 220 219 219 219 219 219 219 219 220 220 219 219 220 223 224 226 227 228 229 230 231 232 233 233 234 235 236 236 237 237 238 240 241 243 245 248 250 251 252 253 255 257 259 260 260 260 261 263 263 262
240 237 234 233 232 230 228 227 225 223 221 220 221 221 221 220 220 220 220 220 220 220 220 220 220 220 222 224 226 227 228 230 231 232 233 234 235 235 236 237 236 237 237 238 240 242 244 246 247 248 249 250 252 254 256 258 259 260 261 263 264 263 261
247 241 237 234 232 231 229 227 226 225 223 221 220 221 222 221 221 221 221 221 221 221 221 221 221 221 222 223 225 227 228 230 231 233 234 235 236 237 238 238 239 238 239 240 242 244 245 246 247 248 249 251 253 255 256 257 258 260 262 263 264 263 261
251 245 241 237 234 232 230 228 227 225 224 222 221 221 221 222 222 222 221 221 221 222 222 222 222 223 223 224 225 226 228 230 232 233 235 236 238 239 240 241 242 242 242 242 244 245 246 247 248 249 251 252 254 255 256 257 259 261 262 263 264 263 263
253 248 244 241 237 234 231 229 227 225 224 223 223 222 221 222 222 223 222 222 222 222 223 223 224 224 224 225 226 227 229 230 232 234 235 237 239 240 241 243 244 245 245 245 245 246 247 249 250 251 252 253 254 256 256 258 259 261 263 263 263 263 264
256 252 247 244 240 237 234 231 228 225 224 223 223 223 223 222 222 223 223 223 223 223 223 223 224 225 226 227 227 228 229 231 232 234 236 238 239 241 242 243 245 246 246 247 247 248 249 250 251 252 253 254 255 256 257 258 260 261 262 263 263 264 264
263 257 252 247 244 241 237 234 230 226 224 223 222 223 224 223 223 223 223 223 223 223 223 224 224 225 226 228 229 230 230 231 232 234 236 237 239 241 242 243 245 246 247 248 248 249 250 251 252 253 254 255 255 256 257 258 259 260 261 262 263 263 264
Height
10633 10638 10642 10648 10654 10661 10668 10675 10681 10686 10689 10692 10696 10701 10707 10712 10716 10720 10723 10725 10729 10732 10735 10739 10741 10743 10746 10748 10751 10753 10753 10754 10757 10759 10760 10760 10762 10764 10766 10767 10769 10771 10772 10772 10774 10775 10776 10778 10779 10781 10782 10784 10784 10785 10786 10785 10785 10786 10787 10788 10789 10789 10790
10626 10631 10636 10642 10648 10655 10662 10670 10676 10681 10684 10688 10692 10696 10701 10705 10709 10713 10717 10721 10724 10727 10731 10735 10738 10741 10744 10746 10749 10751 10752 10751 10752 10754 10757 10758 10759 10761 10763 10765 10767 10768 10769 10770 10772 10773 10774 10775 10777 10779 10781 10782 10783 10783 10784 10785 10785 10786 10787 10787 10788 10789 10789
10620 10625 10631 10636 10643 10650 10657 10664 10671 10675 10679 10683 10686 10690 10693 10697 10702 10708 10713 10716 10719 10723 10727 10730 10734 10737 10740 10743 10746 10748 10748 10749 10749 10750 10752 10754 10756 10758 10760 10762 10765 10766 10767 10769 10770 10772 10773 10774 10775 10777 10779 10780 10781 10782 10782 10783 10784 10785 10786 10786 10787 10787 10788
10614 10620 10625 10631 10637 10645 10651 10657 10664 10668 10672 10676 10680 10684 10688 10693 10699 10704 10708 10711 10715 10720 10723 10726 10730 10733 10736 10740 10742 10744 10745 10746 10747 10747 10749 10752 10753 10755 10757 10760 10762 10764 10765 10767 10768 10770 10771 10772 10774 10775 10776 10778 10779 10780 10781 10782 10783 10784 10784 10785 10786 10786 10787
10607 10614 10619 10625 10632 10638 10644 10650 10656 10662 10666 10669 10673 10679 10684 10690 10695 10699 10703 10707 10711 10716 10720 10723 10726 10729 10733 10736 10739 10741 10742 10743 10744 10746 10747 10749 10750 10752 10755 10757 10759 10761 10762 10764 10765 10767 10769 10771 10772 10773 10774 10776 10777 10779 10780 10781 10782 10782 10783 10784 10785 10785 10786
10600 10607 10613 10619 10626 10632 10638 10643 10649 10655 10660 10663 10668 10674 10679 10685 10690 10694 10699 10703 10707 10712 10716 10719 10722 10726 10729 10732 10735 10737 10739 10740 10742 10743 10744 10745 10746 10749 10752 10754 10755 10756 10758 10760 10762 10764 10767 10768 10769 10771 10772 10774 10775 10777 10778 10779 10780 10781 10782 10783 10784 10784 10784
10593 10600 10607 10613 10620 10626 10631 10637 10642 10649 10654 10659 10664 10670 10675 10680 10685 10689 10693 10698 10702 10707 10710 10714 10718 10721 10725 10728 10731 10733 10734 10737 10739 10739 10740 10740 10741 10745 10747 10750 10752 10753 10755 10757 10759 10762 10764 10765 10767 10768 10770 10772 10773 10775 10776 10777 10778 10779 10780 10780 10781 10782 10782
10586 10593 10601 10607 10613 10619 10625 10630 10635 10642 10648 10654 10660 10666 10670 10675 10680 10685 10688 10691 10697 10702 10705 10709 10713 10717 10721 10724 10726 10728 10731 10734 10735 10736 10736 10735 10737 10741 10743 10746 10749 10751 10753 10754 10756 10759 10761 10762 10764 10765 10767 10769 10771 10773 10774 10775 10776 10777 10777 10778 10778 10779 10780
10580 10586 10594 10601 10607 10613 10618 10623 10629 10636 10642 10648 10654 10660 10665 10669 10674 10678 10680 10683 10688 10694 10699 10704 10708 10712 10716 10719 10722 10725 10727 10730 10732 10733 10733 10733 10734 10736 10739 10743 10746 10748 10750 10752 10753 10756 10758 10759 10761 10762 10764 10767 10769 10771 10772 10773 10774 10775 10775 10775 10776 10777 10777
10574 10580 10587 10594 10600 10606 10612 10617 10623 10630 10636 10642 10648 10654 10659 10663 10667 10671 10673 10675 10679 10685 10692 10699 10704 10708 10712 10715 10718 10721 10723 10726 10729 10732 10731 10730 10729 10731 10735 10738 10741 10744 10748 10749 10750 10752 10754 10755 10757 10759 10761 10764 10766 10768 10769 10771 10772 10772 10773 10773 10774 10774 10774
10568 10574 10580 10587 10594 10599 10605 10611 10617 10623 10629 10636 10642 10648 10652 10656 10660 10664 10666 10669 10674 10681 10688 10694 10699 10703 10707 10710 10713 10716 10719 10721 10725 10728 10728 10727 10726 10728 10731 10734 10737 10741 10744 10745 10746 10748 10750 10751 10752 10755 10758 10760 10762 10764 10766 10767 10768 10769 10770 10771 10772 10772 10772
10562 10567 10574 10580 10587 10593 10599 10605 10611 10616 10623 10629 10636 10641 10646 10650 10654 10657 10660 10664 10671 10678 10684 10689 10695 10699 10703 10706 10709 10712 10715 10717 10720 10722 10723 10724 10725 10726 10729 10732 10735 10738 10740 10741 10742 10744 10746 10747 10748 10751 10754 10756 10758 10760 10762 10763 10765 10766 10767 10768 10769 10769 10769
10556 10561 10567 10574 10580 10586 10592 10599 10605 10610 10616 10623 10628 10634 10639 10643 10648 10651 10655 10661 10668 10674 10680 10685 10691 10695 10699 10702 10705 10708 10711 10714 10716 10718 10720 10721 10723 10725 10727 10730 10733 10734 10735 10737 10738 10739 10742 10744 10745 10748 10750 10752 10754 10756 10757 10758 10759 10761 10763 10764 10765 10765 10766
10551 10556 10561 10567 10573 10580 10586 10593 10598 10604 10611 10617 10622 10628 10632 10637 10642 10646 10651 10658 10665 10670 10676 10681 10687 10691 10695 10698 10701 10704 10707 10710 10713 10715 10717 10718 10719 10722 10724 10726 10728 10729 10730 10732 10734 10735 10737 10740 10742 10745 10747 10749 10751 10752 10753 10754 10755 10756 10758 10760 10761 10762 10762
10546 10550 10555 10561 10567 10573 10580 10586 10592 10598 10605 10611 10616 10621 10626 10631 10636 10642 10648 10654 10660 10666 10672 10677 10682 10686 10690 10693 10696 10699 10703 10706 10709 10712 10714 10715 10716 10718 10720 10723 10724 10724 10726 10728 10730 10731 10734 10737 10740 10742 10745 10746 10747 10748 10749 10750 10750 10751 10753 10755 10757 10758 10759
10541 10545 10550 10555 10561 10567 10573 10580 10585 10591 10598 10604 10610 10615 10620 10625 10630 10636 10643 10649 10655 10661 10667 10672 10677 10681 10685 10688 10691 10695 10699 10702 10705 10708 10710 10712 10712 10714 10717 10720 10720 10721 10722 10722 10724 10728 10731 10734 10737 10739 10742 10743 10744 10745 10745 10746 10747 10747 10749 10751 10753 10755 10755
10535 10540 10544 10549 10554 10560 10566 10573 10579 10584 10591 10597 10603 10608 10614 10619 10625 10631 10637 10643 10649 10655 10661 10667 10671 10675 10679 10683 10686 10690 10693 10697 10701 10704 10706 10707 10709 10711 10713 10714 10714 10715 10716 10717 10721 10725 10728 10730 10733 10736 10737 10739 10740 10741 10742 10744 10744 10744 10745 10747 10750 10752 10753
10530 10534 10539 10543 10548 10553 10559 10566 10572 10578 10584 10590 10596 10602 10608 10613 10619 10625 10631 10637 10643 10649 10655 10660 10665 10670 10675 10679 10682 10684 10688 10691 10695 10699 10701 10703 10705 10707 10708 10708 10708 10710 10713 10715 10718 10722 10724 10727 10729 10731 10733 10734 10735 10737 10738 10740 10741 10741 10742 10744 10746 10748 10750
10524 10528 10533 10537 10542 10547 10553 10559 10565 10571 10577 10583 10589 10595 10601 10606 10612 10619 10624 10630 10636 10643 10649 10654 10659 10664 10669 10673 10676 10679 10683 10687 10690 10693 10696 10698 10700 10702 10703 10704 10706 10708 10710 10712 10715 10718 10720 10722 10724 10727 10728 10729 10731 10732 10734 10735 10737 10738 10738 10740 10742 10744 10746
10519 10523 10527 10531 10536 10541 10547 10552 10558 10564 10570 10576 10582 10588 10594 10600 10606 10612 10618 10624 10630 10637 10643 10649 10654 10658 10663 10666 10669 10672 10677 10681 10685 10688 10690 10692 10695 10697 10699 10701 10704 10706 10707 10709 10711 10714 10716 10718 10721 10723 10724 10725 10727 10729 10729 10730 10732 10734 10735 10736 10738 10739 10741
10513 10517 10520 10525 10530 10535 10541 10546 10552 10557 10563 10570 10575 10581 10587 10593 10599 10606 10612 10618 10624 10631 10638 10643 10646 10650 10655 10659 10662 10667 10671 10676 10679 10682 10684 10686 10688 10691 10694 10698 10700 10702 10703 10705 10708 10710 10713 10715 10717 10718 10720 10722 10724 10725 10726 10727 10729 10731 10732 10733 10734 10735 10736
10507 10511 10515 10519 10524 10529 10534 10540 10545 10551 10557 10563 10569 10575 10581 10586 10592 10599 10606 10612 10618 10625 10630 10634 10637 10642 10648 10653 10657 10662 10666 10671 10674 10677 10679 10680 10682 10686 10690 10693 10696 10698 10700 10702 10704 10707 10710 10712 10713 10714 10717 10719 10721 10722 10723 10724 10725 10727 10729 10729 10730 10731 10732
10502 10506 10510 10514 10518 10523 10528 10533 10539 10544 10550 10556 10563 10568 10574 10580 10587 10594 10601 10607 10611 10616 10620 10624 10630 10637 10643 10647 10651 10655 10660 10664 10668 10671 10674 10674 10677 10682 10687 10690 10692 10694 10696 10698 10700 10703 10706 10708 10709 10711 10713 10716 10717 10717 10719 10720 10721 10723 10724 10724 10725 10726 10727
10498 10501 10505 10509 10513 10518 10522 10527 10532 10537 10543 10549 10556 10561 10567 10573 10581 10588 10593 10599 10603 10606 10612 10618 10625 10631 10636 10640 10645 10649 10653 10658 10662 10665 10667 10669 10672 10677 10681 10684 10686 10688 10691 10693 10696 10699 10702 10704 10706 10708 10710 10711 10712 10712 10713 10714 10716 10718 10719 10720 10720 10721 10722
10493 10497 10500 10504 10508 10512 10516 10520 10525 10530 10536 10542 10548 10554 10560 10567 10573 10579 10585 10591 10596 10601 10607 10613 10619 10624 10629 10633 10637 10642 10646 10651 10655 10658 10661 10663 10666 10670 10674 10677 10679 10682 10685 10688 10691 10694 10697 10700 10701 10703 10704 10705 10706 10706 10707 10709 10711 10713 10715 10715 10715 10716 10716
10489 10491 10495 10498 10502 10506 10510 10514 10518 10523 10529 10535 10541 10547 10553 10560 10566 10572 10577 10584 10590 10596 10601 10605 10611 10617 10621 10626 10630 10635 10640 10644 10648 10651 10654 10656 10659 10664 10667 10670 10672 10675 10678 10682 10686 10689 10692 10694 10695 10696 10697 10698 10699 10699 10701 10703 10705 10707 10710 10711 10711 10711 10710
10484 10487 10490 10493 10496 10500 10504 10508 10512 10516 10521 10527 10534 10540 10546 10553 10559 10564 10570 10576 10583 10590 10595 10598 10603 10609 10614 10619 10623 10628 10633 10637 10641 10644 10647 10650 10653 10657 10661 10663 10666 10669 10672 10678 10682 10684 10685 10687 10688 10689 10690 10691 10692 10693 10695 10697 10699 10702 10704 10706 10706 10705 10705
10480 10482 10485 10488 10491 10494 10498 10502 10506 10510 10514 10520 10526 10532 10539 10545 10551 10557 10562 10569 10576 10583 10589 10592 10596 10601 10607 10612 10616 10621 10625 10629 10633 10636 10640 10643 10646 10650 10653 10657 10660 10663 10669 10674 10677 10677 10678 10678 10679 10681 10683 10684 10686 10688 10690 10691 10693 10696 10699 10700 10701 10701 10700
10476 10478 10480 10483 10486 10489 10492 10496 10499 10503 10508 10513 10519 10525 10531 10537 10543 10549 10555 10561 10568 10575 10582 10586 10590 10594 10599 10604 10608 10613 10617 10622 10626 10630 10633 10636 10638 10642 10646 10650 10654 10660 10666 10669 10668 10668 10669 10669 10670 10673 10676 10678 10680 10681 10683 10684 10687 10690 10692 10694 10695 10695 10694
10473 10474 10476 10478 10481 10483 10487 10490 10494 10498 10502 10507 10512 10518 10524 10530 10536 10542 10548 10554 10560 10567 10574 10580 10584 10587 10592 10596 10600 10605 10610 10615 10619 10622 10624 10627 10631 10635 10640 10645 10649 10655 10659 10659 10658 10658 10659 10660 10663 10666 10669 10671 10672 10674 10675 10677 10681 10683 10685 10687 10688 10687 10687
10469 10470 10472 10474 10476 10479 10482 10485 10489 10493 10498 10503 10507 10512 10518 10523 10529 10535 10541 10546 10553 10559 10566 10572 10577 10581 10585 10589 10593 10597 10602 10607 10610 10613 10617 10620 10624 10629 10634 10638 10643 10647 10649 10649 10649 10649 10651 10654 10657 10659 10661 10662 10664 10665 10667 10670 10673 10674 10676 10678 10679 10680 10680
10466 10467 10468 10470 10472 10474 10477 10481 10484 10489 10494 10498 10502 10507 10511 10517 10522 10527 10533 10539 10545 10551 10557 10563 10569 10573 10577 10581 10585 10589 10594 10598 10602 10606 10610 10613 10617 10622 10627 10631 10634 10636 10638 10640 10641 10642 10645 10647 10649 10650 10652 10654 10656 10657 10659 10661 10663 10665 10667 10669 10670 10671 10671
10463 10464 10465 10466 10468 10470 10473 10477 10480 10484 10489 10493 10497 10501 10506 10510 10515 10520 10526 10532 10537 10543 10549 10555 10560 10566 10570 10574 10578 10582 10586 10590 10594 10598 10602 10605 10609 10615 10619 10620 10622 10625 10629 10632 10634 10635 10636 10638 10640 10641 10643 10645 10647 10649 10650 10652 10653 10656 10658 10659 10660 10662 10662
10460 10461 10462 10463 10465 10467 10470 10473 10476 10480 10484 10488 10492 10496 10500 10504 10509 10514 10519 10524 10530 10535 10540 10546 10552 10557 10562 10567 10571 10575 10579 10583 10587 10590 10594 10597 10601 10606 10608 10608 10610 10616 10621 10624 10625 10626 10627 10629 10631 10633 10635 10636 10638 10639 10641 10642 10644 10646 10648 10649 10650 10652 10652
10459 10459 10460 10461 10462 10464 10466 10469 10473 10476 10480 10483 10487 10491 10495 10499 10503 10507 10512 10517 10522 10527 10533 10538 10544 10549 10554 10559 10564 10568 10572 10575 10579 10583 10586 10589 10592 10596 10598 10599 10602 10607 10611 10613 10615 10617 10619 10620 10622 10624 10625 10627 10629 10630 10631 10633 10634 10635 10637 10639 10640 10641 10641
10457 10458 10458 10459 10460 10462 10464 10466 10469 10472 10476 10479 10482 10486 10489 10493 10497 10501 10505 10510 10515 10520 10525 10531 10536 10541 10546 10551 10556 10560 10564 10568 10571 10575 10578 10581 10583 10587 10589 10591 10593 10597 10600 10603 10605 10607 10609 10611 10612 10613 10615 10617 10619 10620 10621 10622 10623 10625 10626 10628 10629 10630 10630
10456 10457 10457 10458 10459 10460 10461 10463 10466 10469 10472 10475 10478 10481 10484 10488 10491 10495 10499 10503 10508 10513 10518 10523 10528 10533 10538 10543 10547 10552 10556 10560 10563 10567 10569 10572 10574 10578 10581 10583 10585 10587 10590 10592 10595 10597 10599 10600 10602 10603 10604 10606 10608 10610 10611 10612 10613 10614 10615 10616 10617 10618 10619